Location: San Giorgio la Molara
(41.2667°N, 14.9167°E)
Time: 02:30:33
(UTC+00:00)

Daily predictions for brighter satellites

Satellite Brightness Start Highest point End
(mag) Time Altitude Azimuth Time Altitude Azimuth Time Altitude Azimuth
ADEOS II 3.9 00:02:11 10° NE 00:06:02 20° E 00:07:44 17° ESE
Cosmos 2298 Rocket 4.4 00:07:41 50° W 00:08:10 52° WNW 00:13:22 10° N
NOSS 2-2 (D) 4.4 00:03:25 10° NW 00:08:50 87° SW 00:11:38 39° SSE
Cosmos 2084 Rocket 4.3 00:12:47 39° ENE 00:12:47 39° ENE 00:15:25 10° NE
USA 306 3.5 00:11:52 50° NNW 00:11:52 50° NNW 00:15:52 10° NE
Thor Agena Rocket 3.4 00:09:39 10° NNE 00:14:58 89° ESE 00:15:34 71° SSW
USA 307 3.4 00:15:20 54° NNW 00:15:20 54° NNW 00:19:21 10° NE
SL-16 R/B 2.9 00:16:08 38° SE 00:17:09 42° ESE 00:22:27 10° NE
NPP 4.5 00:12:42 10° NNE 00:17:47 41° E 00:19:05 35° SE
ERBS 4.2 00:22:52 26° NNE 00:22:52 26° NNE 00:24:33 10° NNE
Cosmos 1980 4.0 00:20:38 48° W 00:21:40 55° WNW 00:27:14 10° NNE
COSMOS 2455 4.1 00:21:40 25° SE 00:23:16 29° ESE 00:28:20 10° NE
CZ-4 R/B 4.1 00:20:29 10° NNE 00:25:02 54° E 00:25:30 52° SE
ATLAS 5 CENTAUR R/B 2.9 00:16:46 10° NW 00:24:39 47° W 00:24:39 47° W
Cosmos 1455 Rocket 3.0 00:21:30 10° N 00:25:58 75° E 00:26:09 74° ESE
CZ-4C R/B 3.4 00:19:05 10° NW 00:26:18 46° WSW 00:27:53 42° SW
Cosmos 332 Rocket 3.7 00:28:23 66° W 00:28:38 67° WNW 00:33:25 10° NNE
Meteor 1-24 Rocket 3.7 00:34:53 50° SSE 00:36:19 75° E 00:41:48 10° NNE
Cosmos 1975 Rocket 3.1 00:39:39 63° W 00:39:41 63° W 00:44:07 10° N
Meteor 2-10 Rocket 3.7 00:34:54 10° NNW 00:40:27 61° W 00:41:17 54° SW
UNK 4.4 00:40:51 30° SE 00:42:47 50° ENE 00:47:14 10° N
MOS 1 Rocket 4.0 00:44:05 28° SE 00:45:54 44° ENE 00:49:59 10° N
USA 308 4.2 00:44:46 28° WNW 00:45:59 34° NNW 00:49:50 10° NE
Cosmos 839 Rocket 4.4 00:40:04 10° NW 00:46:26 55° WSW 00:49:12 37° S
Cosmos 1025 Rocket 3.0 00:47:03 64° W 00:47:10 65° W 00:51:28 10° N
Cosmos 1455 2.8 00:48:25 10° N 00:52:02 49° E 00:52:38 44° ESE
Cosmos 1269 Rocket 3.9 00:47:46 10° NNW 00:53:04 89° WSW 00:55:07 39° SSE
Cosmos 1271 Rocket 4.5 00:52:04 10° NNE 00:55:26 29° ENE 00:57:44 16° SE
Meteor 2-5 Rocket 3.8 00:55:38 45° SW 00:57:15 63° WNW 01:02:55 10° N
GP-B 4.2 00:54:16 10° NNW 00:58:07 29° W 00:58:07 29° W
Lacrosse 5 1.9 00:58:31 47° WSW 00:59:56 74° NW 01:05:03 10° NE
USA 267 4.5 01:02:15 22° WSW 01:02:15 22° WSW 01:05:44 10° WNW
CZ-2D R/B 2.1 00:55:33 10° N 01:00:54 70° WNW 01:02:28 45° SW
Cosmos 2154 Rocket 4.3 01:00:02 10° N 01:06:22 67° E 01:11:15 17° SSE
Cosmos 1544 Rocket 3.5 01:07:55 10° NNW 01:12:18 66° W 01:13:10 52° SSW
Cosmos 2237 Rocket 3.8 01:11:28 18° W 01:14:00 24° NW 01:18:38 10° N
SL-16 R/B 2.5 01:14:42 29° S 01:17:57 66° WSW 01:24:11 10° NNW
Helios 1A 3.2 01:16:52 25° SSE 01:19:12 69° ENE 01:23:25 10° N
AQUA 3.8 01:15:29 10° N 01:20:13 68° WNW 01:21:49 40° SW
Lacrosse 5 rocket 1.4 01:21:54 47° W 01:22:47 64° NW 01:26:48 10° NE
SAR-Lupe-2 3.7 01:20:15 10° N 01:23:45 53° WNW 01:24:09 50° W
SME Rocket 4.5 01:24:34 22° W 01:24:34 22° W 01:27:48 10° NW
NOSS 3-3 (A) 4.4 01:26:08 25° S 01:29:07 48° ESE 01:35:03 10° NE
NOSS 3-3 (C) 4.4 01:26:14 25° S 01:29:13 47° ESE 01:35:08 10° NE
Resurs 1-4 Rocket 2.9 01:25:07 10° N 01:29:55 37° WNW 01:31:56 27° WSW
Cosmos 2074 Rocket 4.1 01:24:28 10° NNW 01:30:36 56° W 01:33:59 27° SSW
Cosmos 1943 Rocket 2.3 01:30:11 10° NNW 01:35:43 55° WSW 01:39:28 20° S
Cosmos 2297 3.6 01:30:01 10° NNW 01:35:45 72° WSW 01:41:26 10° SSE
Cosmos 1703 3.2 01:35:52 37° S 01:37:20 86° W 01:41:17 10° N
Cosmos 1295 Rocket 4.5 01:32:24 10° N 01:38:45 76° W 01:43:49 17° S
Cosmos 2184 Rocket 4.4 01:39:32 10° NNW 01:45:24 44° W 01:48:45 24° SSW
ADEOS II 2.5 01:40:54 10° N 01:45:58 50° WNW 01:48:40 26° SW
Cosmos 2278 Rocket 4.2 01:44:49 10° W 01:45:23 10° W 01:45:23 10° W
IDEFIX/ARIANE 42P 2.7 01:41:44 10° N 01:46:55 59° WNW 01:49:52 25° SW
Cosmos 1610 Rocket 4.5 01:43:15 10° NNW 01:49:19 64° W 01:54:08 16° S
GPS 2-04 Rocket1 4.3 01:50:27 16° SSE 01:50:28 16° SSE 01:52:41 10° ESE
Cosmos 292 Rocket 4.0 01:48:10 28° SW 01:50:31 55° WNW 01:55:14 10° N
DNEPR-1 R/B 4.1 01:48:16 23° S 01:50:36 49° ESE 01:54:56 10° NE
CBERS-1 4.5 01:47:12 10° NNE 01:52:16 58° ESE 01:56:47 13° S
Meteor 1-21 Rocket 4.2 01:51:33 18° S 01:55:48 87° W 02:01:25 10° N
Cosmos 2369 Rocket 2.1 01:55:26 10° NNW 02:01:04 90° WSW 02:06:39 10° SSE
SL-16 R/B 3.4 01:58:00 17° WSW 02:01:22 29° NW 02:06:18 10° N
IRS-1D 3.6 01:58:37 10° N 02:03:56 70° WNW 02:07:54 18° SSW
EO 1 Del DPAF 4.3 02:01:02 10° N 02:04:02 27° WNW 02:05:16 22° WSW
Cosmos 2228 3.1 01:59:58 10° NNW 02:04:16 57° W 02:07:33 16° S
Cosmos 962 Rocket 4.4 01:58:11 10° N 02:04:19 81° W 02:10:25 10° S
Cosmos 614 Rocket 4.3 01:59:32 10° NNW 02:04:29 46° WSW 02:09:11 11° S
Meteor 1-28 Rocket 4.2 02:03:36 25° WSW 02:04:29 27° W 02:07:43 10° NW
OAO 2 Rocket 4.4 02:02:22 20° SSW 02:04:30 28° SSE 02:08:40 10° ESE
Cosmos 2181 Rocket 4.3 01:58:28 10° S 02:04:39 69° E 02:10:47 10° NNE
Cosmos 2251 Rocket 3.4 02:01:19 10° NNW 02:06:35 75° WSW 02:11:51 10° SSE
COSMOS 2455 3.4 02:04:48 19° WSW 02:08:56 47° NW 02:14:46 10° NNE
Cosmos 1656 Rocket 3.6 02:05:01 10° NNW 02:10:27 86° ENE 02:15:53 10° SSE
Cosmos 2058 Rocket 4.1 02:07:54 10° N 02:12:09 46° ENE 02:16:20 10° SSE
[s.n.52708] 3.6 02:16:55 20° SSW 02:18:24 38° SE 02:21:04 10° ENE
[s.n.52707] 3.5 02:17:02 20° SSW 02:18:30 38° SE 02:21:11 10° ENE
[s.n.52703] 3.5 02:17:08 20° SSW 02:18:38 38° SE 02:21:18 10° ENE
[s.n.52705] 3.5 02:17:14 20° SSW 02:18:44 38° SE 02:21:24 10° ENE
Cosmos 1408 3.4 02:15:19 10° S 02:18:50 50° E 02:22:22 10° NNE
[s.n.52706] 3.5 02:17:21 20° SSW 02:18:51 38° SE 02:21:30 10° ENE
[s.n.52701] 3.5 02:17:27 20° SSW 02:18:57 38° SE 02:21:37 10° ENE
[s.n.52704] 3.5 02:17:33 20° SSW 02:19:04 38° SE 02:21:44 10° ENE
[s.n.52699] 3.5 02:17:40 20° SSW 02:19:10 38° SE 02:21:50 10° ENE
[s.n.52702] 3.5 02:17:46 20° SSW 02:19:17 39° SE 02:21:57 10° ENE
[s.n.52697] 3.5 02:17:53 20° SSW 02:19:23 39° SE 02:22:04 10° ENE
[s.n.52700] 3.5 02:17:59 20° SSW 02:19:30 39° SE 02:22:10 10° ENE
[s.n.52695] 3.5 02:18:05 20° SSW 02:19:37 39° SE 02:22:18 10° ENE
[s.n.52698] 3.5 02:18:12 20° SSW 02:19:43 39° SE 02:22:24 10° ENE
[s.n.52693] 3.5 02:18:18 20° SSW 02:19:50 39° SE 02:22:31 10° ENE
[s.n.52696] 3.5 02:18:24 20° SSW 02:19:57 39° SE 02:22:38 10° ENE
[s.n.52691] 3.5 02:18:31 20° SSW 02:20:03 39° SE 02:22:44 10° ENE
[s.n.52689] 3.5 02:18:37 20° SSW 02:20:10 40° SE 02:22:51 10° ENE
[s.n.52694] 3.5 02:18:44 20° SSW 02:20:17 40° SE 02:22:58 10° ENE
[s.n.52692] 3.5 02:18:50 20° SSW 02:20:24 40° SE 02:23:04 10° ENE
[s.n.52687] 3.5 02:18:57 20° SSW 02:20:30 40° SE 02:23:11 10° ENE
[s.n.52685] 3.5 02:19:03 20° SSW 02:20:36 40° SE 02:23:18 10° ENE
[s.n.52690] 3.4 02:19:09 20° SSW 02:20:43 40° SE 02:23:25 10° ENE
[s.n.52688] 3.4 02:19:16 20° SSW 02:20:50 40° SE 02:23:32 10° ENE
[s.n.52683] 3.4 02:19:22 20° SSW 02:20:57 40° SE 02:23:39 10° ENE
[s.n.52686] 3.4 02:19:29 20° SSW 02:21:04 41° SE 02:23:45 10° ENE
[s.n.52681] 3.4 02:19:36 20° SSW 02:21:11 41° SE 02:23:52 10° ENE
[s.n.52679] 3.4 02:19:42 20° SSW 02:21:18 41° SE 02:23:59 10° ENE
[s.n.52684] 3.4 02:19:48 20° SSW 02:21:24 41° SE 02:24:06 10° ENE
[s.n.52682] 3.4 02:19:55 20° SSW 02:21:31 41° SE 02:24:13 10° ENE
[s.n.52677] 3.4 02:20:01 20° SSW 02:21:37 41° SE 02:24:20 10° ENE
[s.n.52680] 3.4 02:20:08 20° SSW 02:21:44 41° SE 02:24:27 10° ENE
[s.n.52675] 3.4 02:20:14 20° SSW 02:21:51 41° SE 02:24:34 10° ENE
[s.n.52678] 3.4 02:20:21 20° SSW 02:21:58 42° SE 02:24:41 10° ENE
[s.n.52673] 3.4 02:20:29 20° SSW 02:22:06 42° SE 02:24:48 10° ENE
[s.n.52676] 3.4 02:20:34 20° SSW 02:22:12 42° SE 02:24:55 10° ENE
[s.n.52671] 3.4 02:20:42 20° SSW 02:22:19 42° SE 02:25:01 10° ENE
[s.n.52669] 3.4 02:20:48 20° SSW 02:22:26 42° SE 02:25:08 10° ENE
[s.n.52674] 3.4 02:20:55 20° SSW 02:22:33 42° SE 02:25:16 10° ENE
[s.n.52672] 3.4 02:21:01 20° SSW 02:22:39 42° SE 02:25:22 10° ENE
[s.n.52667] 3.4 02:21:08 20° SSW 02:22:47 43° SE 02:25:30 10° ENE
[s.n.52665] 3.4 02:21:15 19° SSW 02:22:54 43° SE 02:25:37 10° ENE
[s.n.52670] 3.3 02:21:21 19° SSW 02:23:01 43° SE 02:25:44 10° ENE
[s.n.52668] 3.3 02:21:28 19° SSW 02:23:08 43° SE 02:25:51 10° ENE
[s.n.52666] 3.3 02:21:35 19° SSW 02:23:15 43° SE 02:25:58 10° ENE
[s.n.52663] 3.3 02:21:41 19° SSW 02:23:21 43° SE 02:26:05 10° ENE
[s.n.52662] 3.3 02:21:48 19° SSW 02:23:28 44° SE 02:26:12 10° ENE
[s.n.52664] 3.3 02:21:55 19° SSW 02:23:35 44° SE 02:26:19 10° ENE
[s.n.52661] 3.3 02:22:02 19° SSW 02:23:42 44° SE 02:26:26 10° ENE
[s.n.52660] 3.3 02:22:08 19° SSW 02:23:49 44° SE 02:26:34 10° ENE
MSX 4.5 02:18:31 10° N 02:23:51 40° WNW 02:28:25 14° SW
[s.n.52656] 3.3 02:22:15 19° SSW 02:23:56 44° SE 02:26:40 10° ENE
[s.n.52658] 3.3 02:22:22 19° SSW 02:24:04 44° SE 02:26:48 10° ENE
[s.n.52659] 3.3 02:22:28 19° SSW 02:24:10 44° SE 02:26:54 10° ENE
[s.n.52657] 3.3 02:22:36 19° SSW 02:24:18 44° SE 02:27:02 10° ENE
Cosmos 1603 3.7 02:19:47 15° SSW 02:24:34 76° WNW 02:30:16 10° NNE
ATLAS 2A CENTAUR R/B 4.4 02:16:01 13° WSW 02:28:26 33° S 02:34:56 10° SE
PAYLOAD A 4.2 02:24:30 10° NNE 02:29:13 65° ESE 02:34:03 10° S
Cosmos 1271 Rocket 4.3 02:28:29 10° NW 02:31:06 18° W 02:32:45 14° WSW
Cosmos 1606 Rocket 4.1 02:31:16 10° NNW 02:35:23 39° W 02:39:27 10° SSW
ALOS 2.3 02:33:43 10° NNE 02:38:24 85° ESE 02:43:03 10° SSW
CZ-2C R/B 2.5 02:35:26 10° NNE 02:40:35 86° ESE 02:45:34 10° SSW
Lacrosse 5 3.9 02:39:50 10° WNW 02:43:41 21° NNW 02:47:32 10° NNE
Helios 1B rocket 2.9 02:41:14 10° N 02:45:05 43° WNW 02:48:55 10° SW
Cosmos 1420 Rocket 4.1 02:40:15 10° SSW 02:45:24 80° ESE 02:50:37 10° NNE
CZ-2D R/B 4.0 02:42:50 10° NNE 02:46:48 56° E 02:50:40 10° S
Cosmos 2366 rocket 4.0 02:41:44 10° NNW 02:47:48 63° W 02:53:52 10° S
Cosmos 2341 Rocket 4.5 02:42:15 10° NNW 02:48:14 43° W 02:54:11 10° SSW
BREEZE-M DEB (TANK) 3.0 02:47:55 10° WSW 02:52:05 45° NNW 02:54:17 10° NE
Meteor 1-11 4.4 02:46:43 10° SSW 02:52:29 65° WNW 02:58:15 10° N
Okean 1-7 Rocket 3.6 02:49:40 10° S 02:54:07 90° NW 02:58:31 10° N
Cosmos 407 Rocket 3.7 02:49:20 10° NNW 02:54:28 49° WSW 02:59:30 10° S
Cosmos 1371 Rocket 4.1 02:49:32 10° SSW 02:54:38 61° WNW 02:59:46 10° NNE
SL-8 Rocket 4.4 02:49:01 10° NNW 02:54:59 46° W 03:00:57 10° SSW
Cosmos 1943 4.0 02:50:56 10° SW 02:56:13 39° WNW 03:01:33 10° N
METEOR-M 4.3 02:51:57 10° NNE 02:57:20 78° ESE 03:02:40 10° S
Genesis I 3.3 02:58:15 10° NW 03:02:14 58° WSW 03:06:07 10° SSE
Lacrosse 5 rocket 3.7 03:00:13 10° WNW 03:02:36 15° NNW 03:05:03 10° NNE
Meteor 1-29 2.9 03:00:59 10° N 03:04:12 63° WNW 03:07:25 10° SSW
Cosmos 1140 Rocket 4.1 03:00:32 10° NW 03:05:20 37° WSW 03:10:05 10° SSW
